Time,TemperatureF,DewpointF,PressureIn,WindDirection,WindDirectionDegrees,WindSpeedMPH,WindSpeedGustMPH,Humidity,HourlyPrecipIn,Conditions,Clouds,dailyrainin,SoftwareType,DateUTC
2013-03-17 00:04:00,25.7,16.3,30.15,South,179,0.0,0.0,67,0.00,,---,0.00,VWS V14.01,2013-03-16 23:04:00,
2013-03-17 00:09:00,25.3,15.9,30.15,South,179,0.0,0.0,67,0.00,,---,0.00,VWS V14.01,2013-03-16 23:09:00,
2013-03-17 00:14:00,25.2,15.8,30.15,South,179,0.0,0.0,67,0.00,,---,0.00,VWS V14.01,2013-03-16 23:14:00,
2013-03-17 00:19:00,25.0,15.9,30.15,South,179,0.0,0.0,68,0.00,,---,0.00,VWS V14.01,2013-03-16 23:19:00,
2013-03-17 00:24:00,25.0,16.3,30.12,South,179,0.0,0.0,69,0.00,,---,0.00,VWS V14.01,2013-03-16 23:24:00,
2013-03-17 00:29:00,25.0,16.3,30.12,South,179,0.0,0.0,69,0.00,,---,0.00,VWS V14.01,2013-03-16 23:29:00,
2013-03-17 00:34:00,24.8,16.1,30.12,South,179,0.0,0.0,69,0.00,,---,0.00,VWS V14.01,2013-03-16 23:34:00,
2013-03-17 00:39:00,25.0,16.3,30.12,South,179,0.0,0.0,69,0.00,,---,0.00,VWS V14.01,2013-03-16 23:39:00,
2013-03-17 00:44:00,25.0,16.3,30.12,South,179,0.0,0.0,69,0.00,,---,0.00,VWS V14.01,2013-03-16 23:44:00,
2013-03-17 00:49:00,24.8,16.4,30.12,South,179,0.0,0.0,70,0.00,,---,0.00,VWS V14.01,2013-03-16 23:49:00,
2013-03-17 00:54:00,24.8,16.4,30.12,South,179,3.1,3.1,70,0.00,,---,0.00,VWS V14.01,2013-03-16 23:54:00,
2013-03-17 00:59:00,24.6,16.2,30.12,South,179,4.0,4.0,70,0.00,,---,0.00,VWS V14.01,2013-03-16 23:59:00,
2013-03-17 01:04:00,24.4,16.1,30.12,South,179,4.0,4.0,70,0.00,,---,0.00,VWS V14.01,2013-03-17 00:04:00,
2013-03-17 01:09:00,24.3,15.9,30.12,West,263,3.1,3.6,70,0.00,,---,0.00,VWS V14.01,2013-03-17 00:09:00,
2013-03-17 01:14:00,24.1,15.7,30.12,West,264,3.6,4.5,70,0.00,,---,0.00,VWS V14.01,2013-03-17 00:14:00,
2013-03-17 01:19:00,24.1,16.0,30.12,West,264,3.6,4.0,71,0.00,,---,0.00,VWS V14.01,2013-03-17 00:19:00,
2013-03-17 01:24:00,24.1,16.0,30.12,West,264,0.0,0.0,71,0.00,,---,0.00,VWS V14.01,2013-03-17 00:24:00,
2013-03-17 01:29:00,23.9,15.9,30.12,West,264,0.0,0.0,71,0.00,,---,0.00,VWS V14.01,2013-03-17 00:29:00,
2013-03-17 01:34:00,23.9,16.2,30.12,West,264,0.0,0.0,72,0.00,,---,0.00,VWS V14.01,2013-03-17 00:34:00,
2013-03-17 01:39:00,23.5,15.9,30.12,West,264,0.0,0.0,72,0.00,,---,0.00,VWS V14.01,2013-03-17 00:39:00,
2013-03-17 01:44:00,23.0,15.3,30.12,West,264,0.0,0.0,72,0.00,,---,0.00,VWS V14.01,2013-03-17 00:44:00,
2013-03-17 01:49:00,22.8,15.2,30.12,West,264,0.0,0.0,72,0.00,,---,0.00,VWS V14.01,2013-03-17 00:49:00,
2013-03-17 01:54:00,22.8,15.5,30.12,West,264,0.0,0.0,73,0.00,,---,0.00,VWS V14.01,2013-03-17 00:54:00,
2013-03-17 01:59:00,22.8,15.5,30.12,West,264,0.0,2.7,73,0.00,,---,0.00,VWS V14.01,2013-03-17 00:59:00,
2013-03-17 02:04:00,23.0,16.0,30.12,West,264,0.0,0.0,74,0.00,,---,0.00,VWS V14.01,2013-03-17 01:04:00,
2013-03-17 02:09:00,22.8,15.8,30.12,West,264,4.0,4.0,74,0.00,,---,0.00,VWS V14.01,2013-03-17 01:09:00,
2013-03-17 02:14:00,22.6,15.6,30.12,West,266,0.0,0.0,74,0.00,,---,0.00,VWS V14.01,2013-03-17 01:14:00,
2013-03-17 02:19:00,22.3,15.3,30.12,West,266,0.0,0.0,74,0.00,,---,0.00,VWS V14.01,2013-03-17 01:19:00,
2013-03-17 02:24:00,22.1,15.4,30.12,West,266,0.0,0.0,75,0.00,,---,0.00,VWS V14.01,2013-03-17 01:24:00,
2013-03-17 02:29:00,21.9,15.2,30.12,West,266,0.0,0.0,75,0.00,,---,0.00,VWS V14.01,2013-03-17 01:29:00,
2013-03-17 02:34:00,21.7,15.1,30.12,West,266,0.0,0.0,75,0.00,,---,0.00,VWS V14.01,2013-03-17 01:34:00,
2013-03-17 02:39:00,21.7,15.1,30.12,West,266,0.0,0.0,75,0.00,,---,0.00,VWS V14.01,2013-03-17 01:39:00,
2013-03-17 02:44:00,21.6,14.9,30.12,West,266,0.0,0.0,75,0.00,,---,0.00,VWS V14.01,2013-03-17 01:44:00,
2013-03-17 02:49:00,21.2,14.5,30.12,West,266,0.0,0.0,75,0.00,,---,0.00,VWS V14.01,2013-03-17 01:49:00,
2013-03-17 02:54:00,20.8,14.2,30.12,West,266,0.0,0.0,75,0.00,,---,0.00,VWS V14.01,2013-03-17 01:54:00,
2013-03-17 02:59:00,20.8,14.2,30.12,West,266,0.0,0.0,75,0.00,,---,0.00,VWS V14.01,2013-03-17 01:59:00,
2013-03-17 03:04:00,20.8,14.2,30.12,West,266,0.0,0.0,75,0.00,,---,0.00,VWS V14.01,2013-03-17 02:04:00,
2013-03-17 03:09:00,20.8,14.2,30.12,West,266,3.6,3.6,75,0.00,,---,0.00,VWS V14.01,2013-03-17 02:09:00,
2013-03-17 03:14:00,21.4,15.0,30.12,West,266,0.0,0.0,76,0.00,,---,0.00,VWS V14.01,2013-03-17 02:14:00,
2013-03-17 03:19:00,21.2,14.8,30.12,West,266,0.0,0.0,76,0.00,,---,0.00,VWS V14.01,2013-03-17 02:19:00,
2013-03-17 03:25:00,20.8,14.2,30.12,West,266,0.0,0.0,75,0.00,,---,0.00,VWS V14.01,2013-03-17 02:25:00,
2013-03-17 03:30:00,20.7,14.0,30.12,West,266,0.0,2.7,75,0.00,,---,0.00,VWS V14.01,2013-03-17 02:30:00,
2013-03-17 03:35:00,20.7,14.0,30.12,West,266,0.0,0.0,75,0.00,,---,0.00,VWS V14.01,2013-03-17 02:35:00,
2013-03-17 03:40:00,20.5,13.8,30.12,West,266,0.0,0.0,75,0.00,,---,0.00,VWS V14.01,2013-03-17 02:40:00,
2013-03-17 03:45:00,20.5,13.8,30.12,West,266,0.0,2.7,75,0.00,,---,0.00,VWS V14.01,2013-03-17 02:45:00,
2013-03-17 03:50:00,20.5,14.1,30.12,West,266,0.0,0.0,76,0.00,,---,0.00,VWS V14.01,2013-03-17 02:50:00,
2013-03-17 03:55:00,20.5,14.1,30.12,SW,220,0.0,0.0,76,0.00,,---,0.00,VWS V14.01,2013-03-17 02:55:00,
2013-03-17 04:00:00,20.5,14.1,30.12,SW,220,0.0,2.7,76,0.00,,---,0.00,VWS V14.01,2013-03-17 03:00:00,
2013-03-17 04:05:00,20.3,14.0,30.12,SW,220,0.0,0.0,76,0.00,,---,0.00,VWS V14.01,2013-03-17 03:05:00,
2013-03-17 04:10:00,20.5,14.1,30.12,SW,220,0.0,0.0,76,0.00,,---,0.00,VWS V14.01,2013-03-17 03:10:00,
2013-03-17 04:15:00,20.3,14.3,30.12,SW,220,0.0,0.0,77,0.00,,---,0.00,VWS V14.01,2013-03-17 03:15:00,
2013-03-17 04:20:00,20.3,14.3,30.12,SW,220,0.0,0.0,77,0.00,,---,0.00,VWS V14.01,2013-03-17 03:20:00,
2013-03-17 04:25:00,20.3,14.3,30.12,SW,220,0.0,3.1,77,0.00,,---,0.00,VWS V14.01,2013-03-17 03:25:00,
2013-03-17 04:30:00,20.3,14.3,30.12,SW,220,0.0,0.0,77,0.00,,---,0.00,VWS V14.01,2013-03-17 03:30:00,
2013-03-17 04:35:00,20.3,14.6,30.12,SW,220,0.0,0.0,78,0.00,,---,0.00,VWS V14.01,2013-03-17 03:35:00,
2013-03-17 04:40:00,20.5,14.4,30.12,SW,220,0.0,0.0,77,0.00,,---,0.00,VWS V14.01,2013-03-17 03:40:00,
2013-03-17 04:45:00,20.3,14.3,30.12,SW,220,0.0,0.0,77,0.00,,---,0.00,VWS V14.01,2013-03-17 03:45:00,
2013-03-17 04:50:00,20.3,14.3,30.12,SW,220,0.0,0.0,77,0.00,,---,0.00,VWS V14.01,2013-03-17 03:50:00,
2013-03-17 04:55:00,20.3,14.6,30.12,SW,220,0.0,0.0,78,0.00,,---,0.00,VWS V14.01,2013-03-17 03:55:00,
2013-03-17 05:00:00,20.3,14.6,30.12,SW,220,0.0,0.0,78,0.00,,---,0.00,VWS V14.01,2013-03-17 04:00:00,
2013-03-17 05:05:00,20.1,14.4,30.12,SW,220,0.0,0.0,78,0.00,,---,0.00,VWS V14.01,2013-03-17 04:05:00,
2013-03-17 05:10:00,20.1,14.4,30.12,SW,220,3.1,3.1,78,0.00,,---,0.00,VWS V14.01,2013-03-17 04:10:00,
2013-03-17 05:15:00,20.3,14.6,30.12,SW,220,0.0,0.0,78,0.00,,---,0.00,VWS V14.01,2013-03-17 04:15:00,
2013-03-17 05:20:00,20.5,14.7,30.12,SW,220,0.0,2.7,78,0.00,,---,0.00,VWS V14.01,2013-03-17 04:20:00,
2013-03-17 05:25:00,20.5,14.7,30.12,SW,221,4.0,4.5,78,0.00,,---,0.00,VWS V14.01,2013-03-17 04:25:00,
2013-03-17 05:30:00,20.5,14.7,30.12,SW,221,2.7,4.5,78,0.00,,---,0.00,VWS V14.01,2013-03-17 04:30:00,
2013-03-17 05:35:00,20.1,14.4,30.12,SW,221,0.0,3.1,78,0.00,,---,0.00,VWS V14.01,2013-03-17 04:35:00,
2013-03-17 05:40:00,19.8,14.0,30.12,SW,224,3.1,3.1,78,0.00,,---,0.00,VWS V14.01,2013-03-17 04:40:00,
2013-03-17 05:45:00,19.8,14.0,30.12,SW,224,3.6,4.5,78,0.00,,---,0.00,VWS V14.01,2013-03-17 04:45:00,
2013-03-17 05:50:00,19.8,14.3,30.12,NW,308,2.7,3.1,79,0.00,,---,0.00,VWS V14.01,2013-03-17 04:50:00,
2013-03-17 05:55:00,19.8,14.3,30.12,NW,308,2.7,3.6,79,0.00,,---,0.00,VWS V14.01,2013-03-17 04:55:00,
2013-03-17 06:00:00,19.6,14.1,30.12,NW,308,0.0,0.0,79,0.00,,---,0.00,VWS V14.01,2013-03-17 05:00:00,
2013-03-17 06:05:00,19.6,14.4,30.12,NW,308,0.0,3.6,80,0.00,,---,0.00,VWS V14.01,2013-03-17 05:05:00,
2013-03-17 06:10:00,19.2,14.1,30.12,NW,308,2.7,3.1,80,0.00,,---,0.00,VWS V14.01,2013-03-17 05:10:00,
2013-03-17 06:15:00,19.0,13.9,30.12,NW,308,3.1,4.0,80,0.00,,---,0.00,VWS V14.01,2013-03-17 05:15:00,
2013-03-17 06:20:00,19.2,14.1,30.15,NW,308,0.0,0.0,80,0.00,,---,0.00,VWS V14.01,2013-03-17 05:20:00,
2013-03-17 06:25:00,19.9,15.1,30.15,NW,308,0.0,0.0,81,0.00,,---,0.00,VWS V14.01,2013-03-17 05:25:00,
2013-03-17 06:30:00,20.5,15.6,30.15,NW,308,2.7,2.7,81,0.00,,---,0.00,VWS V14.01,2013-03-17 05:30:00,
2013-03-17 06:35:00,20.8,15.9,30.12,NW,308,2.7,3.1,81,0.00,,---,0.00,VWS V14.01,2013-03-17 05:35:00,
2013-03-17 06:40:00,21.4,16.5,30.12,NW,308,0.0,3.6,81,0.00,,---,0.00,VWS V14.01,2013-03-17 05:40:00,
2013-03-17 06:45:00,21.9,17.3,30.12,NW,308,0.0,0.0,82,0.00,,---,0.00,VWS V14.01,2013-03-17 05:45:00,
2013-03-17 06:50:00,22.5,17.5,30.15,NW,308,0.0,2.7,81,0.00,,---,0.00,VWS V14.01,2013-03-17 05:50:00,
2013-03-17 06:55:00,23.0,18.0,30.15,NW,308,0.0,0.0,81,0.00,,---,0.00,VWS V14.01,2013-03-17 05:55:00,
2013-03-17 07:00:00,23.9,18.9,30.15,NW,308,0.0,0.0,81,0.00,,---,0.00,VWS V14.01,2013-03-17 06:00:00,
2013-03-17 07:05:00,25.0,20.3,30.15,NW,308,0.0,0.0,82,0.00,,---,0.00,VWS V14.01,2013-03-17 06:05:00,
2013-03-17 07:10:00,25.7,20.7,30.15,NW,308,0.0,0.0,81,0.00,,---,0.00,VWS V14.01,2013-03-17 06:10:00,
2013-03-17 07:15:00,26.6,21.6,30.15,NW,308,0.0,0.0,81,0.00,,---,0.00,VWS V14.01,2013-03-17 06:15:00,
2013-03-17 07:20:00,26.4,21.1,30.15,NW,308,0.0,0.0,80,0.00,,---,0.00,VWS V14.01,2013-03-17 06:20:00,
2013-03-17 07:25:00,27.1,21.8,30.15,NW,308,0.0,0.0,80,0.00,,---,0.00,VWS V14.01,2013-03-17 06:25:00,
2013-03-17 07:30:00,26.1,20.1,30.15,NW,308,0.0,0.0,78,0.00,,---,0.00,VWS V14.01,2013-03-17 06:30:00,
2013-03-17 07:35:00,26.1,19.9,30.15,NW,308,3.1,3.1,77,0.00,,---,0.00,VWS V14.01,2013-03-17 06:35:00,
2013-03-17 07:40:00,26.2,19.7,30.15,NW,308,3.1,3.6,76,0.00,,---,0.00,VWS V14.01,2013-03-17 06:40:00,
2013-03-17 07:46:00,27.3,20.8,30.15,NNW,328,3.1,4.5,76,0.00,,---,0.00,VWS V14.01,2013-03-17 06:46:00,
2013-03-17 07:51:00,26.6,19.4,30.15,NNW,328,2.7,2.7,74,0.00,,---,0.00,VWS V14.01,2013-03-17 06:51:00,
2013-03-17 07:56:00,25.9,18.1,30.15,NNW,328,2.7,2.7,72,0.00,,---,0.00,VWS V14.01,2013-03-17 06:56:00,
2013-03-17 08:01:00,26.1,18.3,30.15,NW,311,3.1,3.1,72,0.00,,---,0.00,VWS V14.01,2013-03-17 07:01:00,
2013-03-17 08:06:00,25.7,17.6,30.15,NW,318,3.6,3.6,71,0.00,,---,0.00,VWS V14.01,2013-03-17 07:06:00,
2013-03-17 08:11:00,25.7,17.3,30.15,NW,312,3.6,4.5,70,0.00,,---,0.00,VWS V14.01,2013-03-17 07:11:00,
2013-03-17 08:16:00,25.5,17.1,30.15,NW,321,4.9,4.9,70,0.00,,---,0.00,VWS V14.01,2013-03-17 07:16:00,
2013-03-17 08:21:00,25.5,17.1,30.18,NW,325,3.6,4.0,70,0.00,,---,0.00,VWS V14.01,2013-03-17 07:21:00,
2013-03-17 08:26:00,27.5,19.7,30.18,WNW,289,0.0,3.6,72,0.00,,---,0.00,VWS V14.01,2013-03-17 07:26:00,
2013-03-17 08:31:00,28.0,19.9,30.18,NW,307,0.0,0.0,71,0.00,,---,0.00,VWS V14.01,2013-03-17 07:31:00,
2013-03-17 08:36:00,29.5,21.2,30.18,NW,307,2.7,2.7,71,0.00,,---,0.00,VWS V14.01,2013-03-17 07:36:00,
2013-03-17 08:41:00,31.8,23.5,30.18,NW,305,3.6,3.6,71,0.00,,---,0.00,VWS V14.01,2013-03-17 07:41:00,
2013-03-17 08:46:00,32.0,22.3,30.18,South,181,2.7,4.0,67,0.00,,---,0.00,VWS V14.01,2013-03-17 07:46:00,
2013-03-17 08:51:00,32.5,22.5,30.15,South,181,0.0,4.0,66,0.00,,---,0.00,VWS V14.01,2013-03-17 07:51:00,
2013-03-17 08:56:00,32.7,21.5,30.15,SSE,162,3.1,5.8,63,0.00,,---,0.00,VWS V14.01,2013-03-17 07:56:00,
2013-03-17 09:01:00,33.4,21.5,30.15,SSE,162,3.1,5.4,61,0.00,,---,0.00,VWS V14.01,2013-03-17 08:01:00,
2013-03-17 09:06:00,34.2,21.3,30.15,SSE,167,4.9,5.8,59,0.04,,---,0.04,VWS V14.01,2013-03-17 08:06:00,
2013-03-17 09:11:00,34.0,19.5,30.15,South,169,4.5,6.7,55,0.04,,---,0.04,VWS V14.01,2013-03-17 08:11:00,
2013-03-17 09:16:00,34.0,19.1,30.15,South,171,4.5,4.9,54,0.04,,---,0.04,VWS V14.01,2013-03-17 08:16:00,
2013-03-17 09:21:00,34.0,18.7,30.15,SSE,163,7.8,9.6,53,0.04,,---,0.04,VWS V14.01,2013-03-17 08:21:00,
2013-03-17 09:26:00,33.6,17.9,30.15,SSE,163,8.3,9.2,52,0.04,,---,0.04,VWS V14.01,2013-03-17 08:26:00,
2013-03-17 09:31:00,33.6,17.4,30.15,SSE,166,3.6,8.3,51,0.04,,---,0.04,VWS V14.01,2013-03-17 08:31:00,
2013-03-17 09:36:00,34.3,18.5,30.15,South,172,5.8,10.1,52,0.04,,---,0.04,VWS V14.01,2013-03-17 08:36:00,
2013-03-17 09:41:00,33.8,17.1,30.15,SSE,168,6.9,10.5,50,0.04,,---,0.04,VWS V14.01,2013-03-17 08:41:00,
2013-03-17 09:46:00,33.6,17.4,30.15,South,173,6.7,7.4,51,0.04,,---,0.04,VWS V14.01,2013-03-17 08:46:00,
2013-03-17 09:51:00,33.3,16.2,30.15,South,172,4.5,11.0,49,0.04,,---,0.04,VWS V14.01,2013-03-17 08:51:00,
2013-03-17 09:56:00,33.4,16.4,30.15,South,170,5.8,7.4,49,0.04,,---,0.04,VWS V14.01,2013-03-17 08:56:00,
2013-03-17 10:01:00,33.8,17.1,30.15,SSE,161,5.8,6.3,50,0.04,,---,0.04,VWS V14.01,2013-03-17 09:01:00,
2013-03-17 10:06:00,33.8,16.2,30.15,South,169,6.9,7.8,48,0.00,,---,0.04,VWS V14.01,2013-03-17 09:06:00,
2013-03-17 10:11:00,34.2,17.5,30.15,SSE,167,5.8,6.7,50,0.00,,---,0.04,VWS V14.01,2013-03-17 09:11:00,
2013-03-17 10:16:00,34.7,17.5,30.15,SSE,166,7.8,9.6,49,0.00,,---,0.04,VWS V14.01,2013-03-17 09:16:00,
2013-03-17 10:21:00,34.0,15.4,30.15,SSE,161,6.7,8.7,46,0.00,,---,0.04,VWS V14.01,2013-03-17 09:21:00,
2013-03-17 10:26:00,34.2,15.1,30.15,SSE,167,6.9,8.3,45,0.00,,---,0.04,VWS V14.01,2013-03-17 09:26:00,
2013-03-17 10:31:00,34.0,15.4,30.15,SSE,163,6.3,6.7,46,0.00,,---,0.04,VWS V14.01,2013-03-17 09:31:00,
2013-03-17 10:36:00,34.0,15.4,30.15,SSE,167,9.2,12.5,46,0.00,,---,0.04,VWS V14.01,2013-03-17 09:36:00,
2013-03-17 10:41:00,33.8,15.2,30.15,South,171,6.7,9.2,46,0.00,,---,0.04,VWS V14.01,2013-03-17 09:41:00,
2013-03-17 10:46:00,34.0,15.9,30.15,SSE,168,3.6,8.3,47,0.00,,---,0.04,VWS V14.01,2013-03-17 09:46:00,
2013-03-17 10:51:00,34.0,15.9,30.15,SSE,147,5.4,5.4,47,0.00,,---,0.04,VWS V14.01,2013-03-17 09:51:00,
2013-03-17 10:56:00,34.5,16.9,30.15,ENE,66,6.7,11.0,48,0.00,,---,0.04,VWS V14.01,2013-03-17 09:56:00,
2013-03-17 11:01:00,34.5,17.3,30.15,South,180,8.3,11.2,49,0.00,,---,0.04,VWS V14.01,2013-03-17 10:01:00,
2013-03-17 11:07:00,34.3,15.7,30.15,SSE,157,6.9,8.3,46,0.00,,---,0.04,VWS V14.01,2013-03-17 10:07:00,
2013-03-17 11:12:00,34.3,15.2,30.15,SSE,159,7.4,7.4,45,0.00,,---,0.04,VWS V14.01,2013-03-17 10:12:00,
2013-03-17 11:17:00,34.3,14.7,30.15,SSE,156,9.2,15.4,44,0.00,,---,0.04,VWS V14.01,2013-03-17 10:17:00,
2013-03-17 11:22:00,34.3,14.7,30.15,South,173,11.0,11.0,44,0.00,,---,0.04,VWS V14.01,2013-03-17 10:22:00,
2013-03-17 11:27:00,34.0,14.4,30.15,South,171,11.6,11.6,44,0.00,,---,0.04,VWS V14.01,2013-03-17 10:27:00,
2013-03-17 11:32:00,34.0,14.9,30.15,SSE,158,3.6,6.9,45,0.00,,---,0.04,VWS V14.01,2013-03-17 10:32:00,
2013-03-17 11:37:00,34.3,14.7,30.12,SSE,160,8.7,8.7,44,0.00,,---,0.04,VWS V14.01,2013-03-17 10:37:00,
2013-03-17 11:42:00,34.5,14.9,30.12,SSE,162,7.4,11.2,44,0.00,,---,0.04,VWS V14.01,2013-03-17 10:42:00,
2013-03-17 11:47:00,34.5,14.9,30.12,South,173,5.4,7.8,44,0.00,,---,0.04,VWS V14.01,2013-03-17 10:47:00,
2013-03-17 11:52:00,34.3,13.6,30.12,SSE,167,9.6,9.6,42,0.00,,---,0.04,VWS V14.01,2013-03-17 10:52:00,
2013-03-17 11:57:00,34.5,13.8,30.12,South,173,6.7,7.4,42,0.00,,---,0.04,VWS V14.01,2013-03-17 10:57:00,
2013-03-17 12:02:00,34.5,13.8,30.12,South,170,14.8,15.4,42,0.00,,---,0.04,VWS V14.01,2013-03-17 11:02:00,
2013-03-17 12:07:00,34.2,14.0,30.12,SSE,168,8.3,12.5,43,0.00,,---,0.04,VWS V14.01,2013-03-17 11:07:00,
2013-03-17 12:12:00,34.2,14.5,30.12,SSE,167,10.5,15.4,44,0.00,,---,0.04,VWS V14.01,2013-03-17 11:12:00,
2013-03-17 12:17:00,34.3,14.2,30.12,SSE,161,12.1,13.9,43,0.00,,---,0.04,VWS V14.01,2013-03-17 11:17:00,
2013-03-17 12:22:00,34.3,13.6,30.12,SSE,163,10.1,11.2,42,0.00,,---,0.04,VWS V14.01,2013-03-17 11:22:00,
2013-03-17 12:27:00,34.3,13.6,30.12,South,171,8.3,8.3,42,0.00,,---,0.04,VWS V14.01,2013-03-17 11:27:00,
2013-03-17 12:32:00,34.5,13.3,30.12,SE,144,10.1,11.6,41,0.00,,---,0.04,VWS V14.01,2013-03-17 11:32:00,
2013-03-17 12:37:00,34.5,13.3,30.12,SSE,163,9.2,13.0,41,0.00,,---,0.04,VWS V14.01,2013-03-17 11:37:00,
2013-03-17 12:42:00,34.3,13.1,30.12,South,178,9.6,11.2,41,0.00,,---,0.04,VWS V14.01,2013-03-17 11:42:00,
2013-03-17 12:47:00,34.3,13.6,30.12,South,169,8.3,13.4,42,0.00,,---,0.04,VWS V14.01,2013-03-17 11:47:00,
2013-03-17 12:52:00,34.3,13.6,30.12,SSE,165,11.2,13.0,42,0.00,,---,0.04,VWS V14.01,2013-03-17 11:52:00,
2013-03-17 12:57:00,34.5,13.8,30.12,SSE,167,11.0,13.4,42,0.00,,---,0.04,VWS V14.01,2013-03-17 11:57:00,
2013-03-17 13:02:00,34.7,14.0,30.12,SSE,161,7.8,10.1,42,0.00,,---,0.04,VWS V14.01,2013-03-17 12:02:00,
2013-03-17 13:07:00,34.9,13.6,30.09,SSE,161,8.3,10.5,41,0.00,,---,0.04,VWS V14.01,2013-03-17 12:07:00,
2013-03-17 13:12:00,34.9,13.6,30.09,South,173,10.5,11.2,41,0.00,,---,0.04,VWS V14.01,2013-03-17 12:12:00,
2013-03-17 13:17:00,34.7,13.4,30.09,SSE,164,12.5,15.9,41,0.00,,---,0.04,VWS V14.01,2013-03-17 12:17:00,
2013-03-17 13:22:00,34.5,13.3,30.09,SSE,168,12.1,15.4,41,0.00,,---,0.04,VWS V14.01,2013-03-17 12:22:00,
2013-03-17 13:27:00,34.7,13.4,30.09,SSE,163,11.6,13.0,41,0.00,,---,0.04,VWS V14.01,2013-03-17 12:27:00,
2013-03-17 13:32:00,34.5,13.3,30.09,South,170,8.7,9.2,41,0.00,,---,0.04,VWS V14.01,2013-03-17 12:32:00,
2013-03-17 13:37:00,34.5,13.3,30.09,SSE,164,10.5,11.2,41,0.00,,---,0.04,VWS V14.01,2013-03-17 12:37:00,
2013-03-17 13:42:00,34.9,13.0,30.09,SSE,147,7.8,11.0,40,0.00,,---,0.04,VWS V14.01,2013-03-17 12:42:00,
2013-03-17 13:47:00,34.9,13.0,30.09,SSE,166,8.3,11.0,40,0.00,,---,0.04,VWS V14.01,2013-03-17 12:47:00,
2013-03-17 13:52:00,34.7,12.9,30.09,South,179,16.8,19.0,40,0.00,,---,0.04,VWS V14.01,2013-03-17 12:52:00,
2013-03-17 13:57:00,34.5,13.3,30.09,South,170,8.3,11.6,41,0.00,,---,0.04,VWS V14.01,2013-03-17 12:57:00,
2013-03-17 14:02:00,34.7,13.4,30.09,SSE,167,11.6,16.3,41,0.00,,---,0.04,VWS V14.01,2013-03-17 13:02:00,
2013-03-17 14:08:00,34.7,13.4,30.06,SSE,160,14.3,17.2,41,0.00,,---,0.04,VWS V14.01,2013-03-17 13:08:00,
2013-03-17 14:13:00,34.7,13.4,30.06,SSE,168,13.0,19.0,41,0.00,,---,0.04,VWS V14.01,2013-03-17 13:13:00,
2013-03-17 14:18:00,34.5,13.3,30.06,SSE,152,11.6,12.5,41,0.00,,---,0.04,VWS V14.01,2013-03-17 13:18:00,
2013-03-17 14:23:00,34.5,13.3,30.06,South,174,11.0,17.2,41,0.00,,---,0.04,VWS V14.01,2013-03-17 13:23:00,
2013-03-17 14:28:00,34.3,13.1,30.06,South,171,6.9,13.4,41,0.00,,---,0.04,VWS V14.01,2013-03-17 13:28:00,
2013-03-17 14:33:00,34.2,12.9,30.06,SSE,163,11.2,16.8,41,0.00,,---,0.04,VWS V14.01,2013-03-17 13:33:00,
2013-03-17 14:38:00,34.0,12.8,30.06,South,169,12.1,14.3,41,0.00,,---,0.04,VWS V14.01,2013-03-17 13:38:00,
2013-03-17 14:43:00,34.2,13.5,30.06,SE,134,10.1,15.9,42,0.00,,---,0.04,VWS V14.01,2013-03-17 13:43:00,
2013-03-17 14:48:00,34.3,13.6,30.06,South,177,11.0,17.7,42,0.00,,---,0.04,VWS V14.01,2013-03-17 13:48:00,
2013-03-17 14:53:00,34.3,14.2,30.06,SSE,168,10.5,10.5,43,0.00,,---,0.04,VWS V14.01,2013-03-17 13:53:00,
2013-03-17 14:58:00,34.3,14.7,30.06,SSE,161,14.8,15.2,44,0.00,,---,0.04,VWS V14.01,2013-03-17 13:58:00,
2013-03-17 15:03:00,34.3,14.7,30.06,SSE,163,12.5,18.1,44,0.00,,---,0.04,VWS V14.01,2013-03-17 14:03:00,
2013-03-17 15:08:00,34.3,15.2,30.06,SSE,161,6.7,12.1,45,0.00,,---,0.04,VWS V14.01,2013-03-17 14:08:00,
2013-03-17 15:13:00,34.3,15.2,30.06,SSE,165,8.3,15.2,45,0.00,,---,0.04,VWS V14.01,2013-03-17 14:13:00,
2013-03-17 15:18:00,34.2,14.5,30.06,South,173,11.2,14.3,44,0.00,,---,0.04,VWS V14.01,2013-03-17 14:18:00,
2013-03-17 15:23:00,34.2,15.1,30.06,SSE,160,8.7,10.1,45,0.00,,---,0.04,VWS V14.01,2013-03-17 14:23:00,
2013-03-17 15:28:00,34.0,14.4,30.06,South,169,11.2,12.1,44,0.00,,---,0.04,VWS V14.01,2013-03-17 14:28:00,
2013-03-17 15:33:00,34.0,14.9,30.06,SSE,167,6.9,13.0,45,0.00,,---,0.04,VWS V14.01,2013-03-17 14:33:00,
2013-03-17 15:38:00,33.8,14.7,30.06,SSE,160,10.1,12.1,45,0.00,,---,0.04,VWS V14.01,2013-03-17 14:38:00,
2013-03-17 15:43:00,33.8,14.7,30.06,South,174,10.1,13.4,45,0.00,,---,0.04,VWS V14.01,2013-03-17 14:43:00,
2013-03-17 15:48:00,33.6,14.6,30.06,SSE,166,11.0,16.8,45,0.00,,---,0.04,VWS V14.01,2013-03-17 14:48:00,
2013-03-17 15:53:00,33.6,14.6,30.06,SSE,164,6.9,13.0,45,0.00,,---,0.04,VWS V14.01,2013-03-17 14:53:00,
2013-03-17 15:58:00,33.6,14.6,30.06,SSE,158,11.6,14.8,45,0.00,,---,0.04,VWS V14.01,2013-03-17 14:58:00,
2013-03-17 16:03:00,33.4,14.4,30.06,SSE,166,10.5,13.9,45,0.00,,---,0.04,VWS V14.01,2013-03-17 15:03:00,
2013-03-17 16:08:00,33.4,13.9,30.06,SSE,162,10.5,13.0,44,0.00,,---,0.04,VWS V14.01,2013-03-17 15:08:00,
2013-03-17 16:13:00,33.4,14.4,30.06,SSE,160,9.6,12.1,45,0.00,,---,0.04,VWS V14.01,2013-03-17 15:13:00,
2013-03-17 16:18:00,33.4,14.4,30.06,SSE,158,15.9,18.1,45,0.00,,---,0.04,VWS V14.01,2013-03-17 15:18:00,
2013-03-17 16:23:00,33.3,14.2,30.06,SSE,159,9.2,12.5,45,0.00,,---,0.04,VWS V14.01,2013-03-17 15:23:00,
2013-03-17 16:28:00,33.3,14.2,30.06,SSE,156,12.5,15.2,45,0.00,,---,0.04,VWS V14.01,2013-03-17 15:28:00,
2013-03-17 16:33:00,33.1,13.6,30.06,SSE,159,15.9,18.6,44,0.00,,---,0.04,VWS V14.01,2013-03-17 15:33:00,
2013-03-17 16:38:00,33.1,13.6,30.06,SSE,167,9.2,9.6,44,0.00,,---,0.04,VWS V14.01,2013-03-17 15:38:00,
2013-03-17 16:43:00,32.9,13.4,30.06,SSE,165,9.2,15.2,44,0.00,,---,0.04,VWS V14.01,2013-03-17 15:43:00,
2013-03-17 16:48:00,32.9,12.9,30.06,South,169,11.0,13.0,43,0.00,,---,0.04,VWS V14.01,2013-03-17 15:48:00,
2013-03-17 16:53:00,32.9,13.4,30.06,SSE,163,7.8,10.1,44,0.00,,---,0.04,VWS V14.01,2013-03-17 15:53:00,
2013-03-17 16:58:00,32.9,13.4,30.06,SSE,165,11.6,11.6,44,0.00,,---,0.04,VWS V14.01,2013-03-17 15:58:00,
2013-03-17 17:03:00,32.7,12.7,30.06,SSE,162,15.4,15.4,43,0.00,,---,0.04,VWS V14.01,2013-03-17 16:03:00,
2013-03-17 17:08:00,32.7,12.7,30.06,South,174,11.2,11.2,43,0.00,,---,0.04,VWS V14.01,2013-03-17 16:08:00,
2013-03-17 17:13:00,32.7,12.7,30.06,SSE,160,13.4,14.3,43,0.00,,---,0.04,VWS V14.01,2013-03-17 16:13:00,
2013-03-17 17:18:00,32.7,13.2,30.06,SSE,159,13.0,13.0,44,0.00,,---,0.04,VWS V14.01,2013-03-17 16:18:00,
2013-03-17 17:23:00,32.7,13.2,30.06,SSE,163,11.0,12.1,44,0.00,,---,0.04,VWS V14.01,2013-03-17 16:23:00,
2013-03-17 17:28:00,32.5,13.1,30.06,SSE,167,12.1,13.0,44,0.00,,---,0.04,VWS V14.01,2013-03-17 16:28:00,
2013-03-17 17:33:00,32.5,13.1,30.06,SSE,155,9.2,9.2,44,0.00,,---,0.04,VWS V14.01,2013-03-17 16:33:00,
2013-03-17 17:38:00,32.5,13.6,30.06,SSE,163,10.5,11.2,45,0.00,,---,0.04,VWS V14.01,2013-03-17 16:38:00,
2013-03-17 17:43:00,32.5,13.1,30.06,SSE,164,10.1,11.6,44,0.00,,---,0.04,VWS V14.01,2013-03-17 16:43:00,
2013-03-17 17:48:00,32.5,13.1,30.06,SE,140,8.7,9.6,44,0.00,,---,0.04,VWS V14.01,2013-03-17 16:48:00,
2013-03-17 17:53:00,32.4,13.9,30.06,SSE,166,9.6,10.1,46,0.00,,---,0.04,VWS V14.01,2013-03-17 16:53:00,
2013-03-17 17:58:00,32.2,15.2,30.06,South,169,13.9,16.3,49,0.00,,---,0.04,VWS V14.01,2013-03-17 16:58:00,
2013-03-17 18:03:00,32.0,15.9,30.06,SSE,162,9.6,13.0,51,0.00,,---,0.04,VWS V14.01,2013-03-17 17:03:00,
2013-03-17 18:08:00,32.0,15.9,30.06,ESE,108,7.4,10.5,51,0.00,,---,0.04,VWS V14.01,2013-03-17 17:08:00,
2013-03-17 18:13:00,31.8,15.8,30.06,South,169,10.5,10.5,51,0.00,,---,0.04,VWS V14.01,2013-03-17 17:13:00,
2013-03-17 18:18:00,31.6,16.0,30.06,SE,146,9.6,13.0,52,0.00,,---,0.04,VWS V14.01,2013-03-17 17:18:00,
2013-03-17 18:23:00,31.5,15.9,30.06,SE,134,9.6,12.5,52,0.00,,---,0.04,VWS V14.01,2013-03-17 17:23:00,
2013-03-17 18:28:00,31.5,15.9,30.06,SSE,148,10.1,12.5,52,0.00,,---,0.04,VWS V14.01,2013-03-17 17:28:00,
2013-03-17 18:33:00,31.3,15.7,30.06,South,175,6.9,10.5,52,0.00,,---,0.04,VWS V14.01,2013-03-17 17:33:00,
2013-03-17 18:38:00,31.3,15.7,30.06,SSE,153,14.8,17.7,52,0.00,,---,0.04,VWS V14.01,2013-03-17 17:38:00,
2013-03-17 18:43:00,31.3,15.7,30.06,South,172,4.0,10.5,52,0.00,,---,0.04,VWS V14.01,2013-03-17 17:43:00,
2013-03-17 18:48:00,31.3,15.7,30.06,SSE,164,10.5,12.1,52,0.00,,---,0.04,VWS V14.01,2013-03-17 17:48:00,
2013-03-17 18:53:00,31.3,15.7,30.06,SE,138,10.1,13.0,52,0.00,,---,0.04,VWS V14.01,2013-03-17 17:53:00,
2013-03-17 18:58:00,31.1,15.5,30.06,SSE,161,9.6,12.1,52,0.00,,---,0.04,VWS V14.01,2013-03-17 17:58:00,
2013-03-17 19:03:00,31.1,15.5,30.06,SSE,158,5.4,11.2,52,0.00,,---,0.04,VWS V14.01,2013-03-17 18:03:00,
2013-03-17 19:08:00,31.1,15.5,30.06,SSE,167,8.7,9.6,52,0.00,,---,0.04,VWS V14.01,2013-03-17 18:08:00,
2013-03-17 19:13:00,31.1,16.0,30.06,SSE,162,10.5,11.2,53,0.00,,---,0.04,VWS V14.01,2013-03-17 18:13:00,
2013-03-17 19:18:00,30.9,15.8,30.06,SSE,164,10.5,11.0,53,0.00,,---,0.04,VWS V14.01,2013-03-17 18:18:00,
2013-03-17 19:23:00,30.9,16.2,30.06,SSE,167,11.6,13.0,54,0.00,,---,0.04,VWS V14.01,2013-03-17 18:23:00,
2013-03-17 19:28:00,30.9,15.8,30.06,SE,145,6.7,11.6,53,0.00,,---,0.04,VWS V14.01,2013-03-17 18:28:00,
2013-03-17 19:33:00,30.7,16.1,30.06,SSE,150,10.5,10.5,54,0.00,,---,0.04,VWS V14.01,2013-03-17 18:33:00,
2013-03-17 19:38:00,30.7,16.1,30.06,SSE,164,13.0,13.0,54,0.00,,---,0.04,VWS V14.01,2013-03-17 18:38:00,
2013-03-17 19:43:00,30.7,16.1,30.06,SSE,153,7.8,13.0,54,0.00,,---,0.04,VWS V14.01,2013-03-17 18:43:00,
2013-03-17 19:48:00,30.6,15.9,30.06,South,172,4.9,9.6,54,0.00,,---,0.04,VWS V14.01,2013-03-17 18:48:00,
2013-03-17 19:53:00,30.6,15.9,30.06,SSE,163,10.1,14.8,54,0.00,,---,0.04,VWS V14.01,2013-03-17 18:53:00,
2013-03-17 19:58:00,30.6,15.5,30.06,SSE,156,8.3,9.6,53,0.00,,---,0.04,VWS V14.01,2013-03-17 18:58:00,
2013-03-17 20:03:00,30.6,15.5,30.06,South,172,10.5,15.4,53,0.00,,---,0.04,VWS V14.01,2013-03-17 19:03:00,
2013-03-17 20:08:00,30.6,15.5,30.03,South,170,15.9,17.2,53,0.00,,---,0.04,VWS V14.01,2013-03-17 19:08:00,
2013-03-17 20:13:00,30.4,15.3,30.03,SSE,162,9.2,12.1,53,0.00,,---,0.04,VWS V14.01,2013-03-17 19:13:00,
2013-03-17 20:18:00,30.4,15.3,30.03,South,172,11.0,15.4,53,0.00,,---,0.04,VWS V14.01,2013-03-17 19:18:00,
2013-03-17 20:23:00,30.4,15.3,30.03,SSE,164,8.3,13.4,53,0.00,,---,0.04,VWS V14.01,2013-03-17 19:23:00,
2013-03-17 20:28:00,30.4,15.7,30.03,SSE,156,13.0,13.0,54,0.00,,---,0.04,VWS V14.01,2013-03-17 19:28:00,
2013-03-17 20:33:00,30.4,15.7,30.03,SSE,163,11.2,13.4,54,0.00,,---,0.04,VWS V14.01,2013-03-17 19:33:00,
2013-03-17 20:38:00,30.2,16.0,30.03,SSE,154,5.4,11.0,55,0.00,,---,0.04,VWS V14.01,2013-03-17 19:38:00,
2013-03-17 20:43:00,30.2,16.0,30.03,SSE,148,7.8,10.1,55,0.00,,---,0.04,VWS V14.01,2013-03-17 19:43:00,
2013-03-17 20:48:00,30.0,15.8,30.03,SSE,149,12.5,15.4,55,0.00,,---,0.04,VWS V14.01,2013-03-17 19:48:00,
2013-03-17 20:53:00,30.0,15.4,30.03,South,169,11.0,11.2,54,0.00,,---,0.04,VWS V14.01,2013-03-17 19:53:00,
2013-03-17 20:58:00,29.8,15.2,30.03,South,176,13.0,16.8,54,0.00,,---,0.04,VWS V14.01,2013-03-17 19:58:00,
2013-03-17 21:03:00,29.8,14.8,30.03,SSE,159,12.5,13.4,53,0.00,,---,0.04,VWS V14.01,2013-03-17 20:03:00,
2013-03-17 21:08:00,29.7,14.6,30.03,SSE,158,11.6,15.4,53,0.00,,---,0.04,VWS V14.01,2013-03-17 20:08:00,
2013-03-17 21:13:00,29.7,14.6,30.03,SSE,160,10.5,15.2,53,0.00,,---,0.04,VWS V14.01,2013-03-17 20:13:00,
2013-03-17 21:18:00,29.7,14.6,30.03,South,171,11.0,13.9,53,0.00,,---,0.04,VWS V14.01,2013-03-17 20:18:00,
2013-03-17 21:23:00,29.7,14.6,30.03,SSE,166,13.4,13.4,53,0.00,,---,0.04,VWS V14.01,2013-03-17 20:23:00,
2013-03-17 21:28:00,29.7,14.2,30.03,SSE,164,11.2,15.4,52,0.00,,---,0.04,VWS V14.01,2013-03-17 20:28:00,
2013-03-17 21:33:00,29.7,14.2,30.03,South,171,14.3,15.4,52,0.00,,---,0.04,VWS V14.01,2013-03-17 20:33:00,
2013-03-17 21:38:00,29.7,14.2,30.03,SSE,151,13.9,15.4,52,0.00,,---,0.04,VWS V14.01,2013-03-17 20:38:00,
2013-03-17 21:43:00,29.7,14.6,30.03,SSE,162,10.5,15.2,53,0.00,,---,0.04,VWS V14.01,2013-03-17 20:43:00,
2013-03-17 21:48:00,29.7,14.6,30.03,SSE,168,11.6,12.5,53,0.00,,---,0.04,VWS V14.01,2013-03-17 20:48:00,
2013-03-17 21:53:00,29.7,14.2,30.03,SSE,163,11.0,13.4,52,0.00,,---,0.04,VWS V14.01,2013-03-17 20:53:00,
2013-03-17 21:58:00,29.7,14.2,30.03,SSE,160,9.2,10.1,52,0.00,,---,0.04,VWS V14.01,2013-03-17 20:58:00,
2013-03-17 22:04:00,29.7,14.2,30.03,SSE,167,5.4,12.1,52,0.00,,---,0.04,VWS V14.01,2013-03-17 21:04:00,
2013-03-17 22:09:00,29.7,14.2,30.03,SSE,160,13.0,13.4,52,0.00,,---,0.04,VWS V14.01,2013-03-17 21:09:00,
2013-03-17 22:14:00,29.7,14.2,30.03,SE,144,13.4,13.4,52,0.00,,---,0.04,VWS V14.01,2013-03-17 21:14:00,
2013-03-17 22:19:00,29.7,14.2,30.03,SSE,149,8.7,12.1,52,0.00,,---,0.04,VWS V14.01,2013-03-17 21:19:00,
2013-03-17 22:24:00,29.7,14.6,30.00,SSE,156,8.7,11.2,53,0.00,,---,0.04,VWS V14.01,2013-03-17 21:24:00,
2013-03-17 22:29:00,29.7,14.6,30.00,SSE,159,9.6,11.0,53,0.00,,---,0.04,VWS V14.01,2013-03-17 21:29:00,
2013-03-17 22:34:00,29.5,14.5,30.00,SE,143,9.6,10.5,53,0.00,,---,0.04,VWS V14.01,2013-03-17 21:34:00,
2013-03-17 22:39:00,29.5,14.9,30.00,SSE,162,9.2,12.1,54,0.00,,---,0.04,VWS V14.01,2013-03-17 21:39:00,
2013-03-17 22:44:00,29.3,14.7,30.00,SSE,162,9.6,13.9,54,0.00,,---,0.04,VWS V14.01,2013-03-17 21:44:00,
2013-03-17 22:49:00,29.3,14.7,30.00,SSE,162,8.3,11.0,54,0.00,,---,0.04,VWS V14.01,2013-03-17 21:49:00,
2013-03-17 22:54:00,29.3,14.7,30.00,SE,132,7.4,14.3,54,0.00,,---,0.04,VWS V14.01,2013-03-17 21:54:00,
2013-03-17 22:59:00,29.3,14.3,30.00,ESE,112,7.4,11.2,53,0.00,,---,0.04,VWS V14.01,2013-03-17 21:59:00,
2013-03-17 23:04:00,29.3,14.3,30.00,SSE,167,10.5,13.4,53,0.00,,---,0.04,VWS V14.01,2013-03-17 22:04:00,
2013-03-17 23:09:00,29.3,14.7,30.00,SSE,163,12.1,12.1,54,0.00,,---,0.04,VWS V14.01,2013-03-17 22:09:00,
2013-03-17 23:14:00,29.3,14.7,30.00,SSE,150,11.2,14.8,54,0.00,,---,0.04,VWS V14.01,2013-03-17 22:14:00,
2013-03-17 23:19:00,29.3,14.7,30.00,SSE,152,7.4,13.0,54,0.00,,---,0.04,VWS V14.01,2013-03-17 22:19:00,
2013-03-17 23:24:00,29.3,14.7,30.00,SSE,158,14.3,15.9,54,0.00,,---,0.04,VWS V14.01,2013-03-17 22:24:00,
2013-03-17 23:29:00,29.3,14.7,30.00,SSE,167,8.3,10.1,54,0.00,,---,0.04,VWS V14.01,2013-03-17 22:29:00,
2013-03-17 23:34:00,29.1,14.6,30.00,SSE,159,10.1,12.5,54,0.00,,---,0.04,VWS V14.01,2013-03-17 22:34:00,
2013-03-17 23:39:00,29.1,14.6,30.00,SSE,155,7.4,9.6,54,0.00,,---,0.04,VWS V14.01,2013-03-17 22:39:00,
2013-03-17 23:44:00,29.1,14.6,30.00,SSE,167,6.9,10.1,54,0.00,,---,0.04,VWS V14.01,2013-03-17 22:44:00,
2013-03-17 23:49:00,29.1,14.6,30.00,East,91,6.7,9.6,54,0.00,,---,0.04,VWS V14.01,2013-03-17 22:49:00,
2013-03-17 23:54:00,29.1,14.1,30.00,South,178,10.1,15.4,53,0.00,,---,0.04,VWS V14.01,2013-03-17 22:54:00,
2013-03-17 23:59:00,29.1,14.1,30.00,SE,144,7.8,11.2,53,0.00,,---,0.04,VWS V14.01,2013-03-17 22:59:00,